Regional Weather Roundup
Issued by NWS

Home | Current Version | Previous Version | Text Only | Print | Product List | Glossary On
Versions: 1 2 3 4 5 6 7 8 9 10 11 12 13 14 15 16 17 18 19 20 21 22 23 24 25 26 27 28 29 30 31 32 33 34 35 36 37 38 39 40 41 42 43 44 45 46 47 48 49 50
000
ASUS45 KABQ 201701
RWRNM
NEW MEXICO REGIONAL WEATHER ROUNDUP
NATIONAL WEATHER SERVICE ALBUQUERQUE NM
1100 AM MDT FRI OCT 20 2017

NOTE: "FAIR" MEANS FEW OR NO CLOUDS BELOW 12,000 FEET AGL WITH NO
       SIGNIFICANT WEATHER OR OBSTRUCTIONS TO VISION.

      THIS PRODUCT IS RELEASED AS TWO VERSIONS.  ONE VERSION NEAR
      THE TOP OF THE HOUR CONTAINING PRELIMINARY DATA FROM ALBUQUERQUE
      AND OTHER STATIONS.  A FINAL VERSION WITH ADDITIONAL DATA IS
      ISSUED ABOUT 10 MINUTES AFTER THE HOUR.

NMZ501-503-504-510>518-201800-
NORTHWEST PLATEAU/NORTHCENTRAL MOUNTAINS

CITY           SKY/WX    TMP DP  RH WIND       PRES   REMARKS
FARMINGTON     FAIR      63  39  41 E5        29.92F
LOS ALAMOS     FAIR      55  43  63 S16G23    30.07S
SANTA FE       PTSUNNY   57  47  69 W9        30.06S
TAOS           PTSUNNY   59  41  51 W13       30.07F
ANGEL FIRE     FAIR      53  36  52 W26G44    30.03F

$$
NMZ402-403-502-505>509-201800-
WESTCENTRAL MOUNTAINS/SOUTHWEST MOUNTAINS

CITY           SKY/WX    TMP DP  RH WIND       PRES   REMARKS
GALLUP         FAIR      63  35  35 SW21G35   30.01F
GRANTS         FAIR      60  45  58 SE9       30.06F
SILVER CITY    FAIR      64  46  50 CALM      30.08F

$$
NMZ407-409-411-412-201800-
SOUTHERN DESERTS

CITY           SKY/WX    TMP DP  RH WIND       PRES   REMARKS
DEMING         FAIR      66  52  60 E5        30.04F
LAS CRUCES     FAIR      65  53  64 S6        30.06F
HOLLOMAN AFB   FAIR      64  62  93 SE9       30.05F
ALAMOGORDO     FAIR      63  52  67 S6        30.06F
T OR C         FAIR      62  51  67 S8        30.04F

$$
NMZ519>523-201800-
CENTRAL VALLEYS/CENTRAL HIGHLANDS

CITY           SKY/WX    TMP DP  RH WIND       PRES   REMARKS
ALBUQUERQUE    FAIR      59  49  69 SW7       30.04S
DOUBLE EAGLE   MOSUNNY   61  46  59 S8        30.06S
MORIARTY ARPT  FAIR      67  45  44 SW3       30.05F
CLINES CORNERS FAIR      60  43  53 W30G41    30.06F
BELEN          FAIR      64  47  55 S17       30.03F
SOCORRO        FAIR      66  47  49 S17G26    30.03F

$$
NMZ524>526-539-540-201800-
SOUTHCENTRAL MOUNTAINS

CITY           SKY/WX    TMP DP  RH WIND       PRES   REMARKS
RUIDOSO        FAIR      63  41  45 S16G22    30.11F

$$
NMZ527>531-201800-
NORTHEAST HIGHLANDS/NORTHEAST PLAINS

CITY           SKY/WX    TMP DP  RH WIND       PRES   REMARKS
LAS VEGAS      FAIR      63  39  41 SW24G31   29.98F
RATON          FAIR      59  42  53 S7        29.91F
CLAYTON        FAIR      68  46  45 SW18G28   29.84F

$$
NMZ532>537-201800-
EASTCENTRAL PLAINS

CITY           SKY/WX    TMP DP  RH WIND       PRES   REMARKS
SANTA ROSA     FAIR      68  50  52 S12       29.94F
TUCUMCARI      FAIR      72  49  44 SW24G33   29.89F
CANNON AFB     FAIR      70  55  59 SW20G26   29.97F
CLOVIS AIRPORT FAIR      70  53  54 SW22      29.97F

$$
NMZ028-029-538-201800-
SOUTHEAST PLAINS

CITY           SKY/WX    TMP DP  RH WIND       PRES   REMARKS
ROSWELL        FAIR      68  53  58 S17       29.99F
ARTESIA        FAIR      70  57  64 S17       29.99F
CARLSBAD       FAIR      70  59  68 S14       29.99S
HOBBS          MOSUNNY   66  57  72 S18       30.02S


$$




USA.gov is the U.S. government's official web portal to all federal, state and local government web resources and services.